Location: Unspecified
(43.4680°N, 87.1740°E)
Time: 05:19:17
(UTC+00:00)

Cosmos 1400 Rocket - Pass Details

Date: 17 April 2021
Orbit: 522 x 566 km, 81.2° (Epoch: 17 May)

Event Time Altitude Azimuth Distance (km) Brightness Sun altitude
Rises 22:29:40 0° 352° (N) 2,759 6.6 -10.1°
Reaches altitude 10° 22:31:52 10° 356° (N) 1,863 5.8 -9.7°
Maximum altitude 22:35:57 65° 78° (ENE) 624 3.4 -9.1°
Drops below altitude 10° 22:40:02 10° 161° (SSE) 1,857 5.5 -8.4°
Sets 22:42:13 0° 164° (SSE) 2,749 6.3 -8.0°
